Location: ????????
(56.0167°N, 38.0333°E)
Time: 11:49:33
(UTC+00:00)

Cosmos 1437 Rocket - Pass Details

Date: 19 May 2025
Orbit: 456 x 500 km, 81.2° (Epoch: 13 June)

Event Time Altitude Azimuth Distance (km) Brightness Sun altitude
Exits shadow 22:24:10 13° 147° (SSE) 1,456 4.6 -13.0°
Maximum altitude 22:26:42 26° 93° (E) 936 4.1 -12.9°
Drops below altitude 10° 22:29:42 10° 35° (NE) 1,615 6.4 -12.8°
Sets 22:31:59 0° 23° (NNE) 2,493 8.2 -12.7°
